CZ-6A DEB, 61164

Orbit data source: Space-Track

CZ-6A DEB, 61164 is space debris in LEO originally from a launch on Tue, 06 Aug 2024 UTC launched from the Taiyaun Space Center, China (TSC). Debris objects in space refer to the collection of defunct objects orbiting the Earth. Examples of debris include non-operational satellites, rocket bodies, and fragments generated from explosions, collisions, or faulty payload assembly.

Loading next visibility...
Identifier
61164, 2024-140RJ
Orbit
LEO
Country
Flag of CNCN / PRC
Related business
Manufacturer
SAST
Mission
Spacecraft
Bus & Motor
Unknown
Mass
Unknown
Launch date (UTC)
2024-08-06 (2 years ago)
Launch vehicle
Unknown
Launch site
Taiyaun Space Center, China (TSC)
Object type
Payload
Rocket body
Debris
Shape & HBR
Unknown shape, 0.1 m
Radar Cross Section
Medium (>0.1 m² and <1 m²)

Expand to show TLE details & history
Last TLE update: 14 hours ago

TLE from 14 hours ago
0 CZ-6A DEB
1 61164U 24140RJ  26171.24480235  .00000389  00000-0  10377-3 0  9995
2 61164  88.9284 265.0028 0070475 243.5924 115.8036 14.45027700 96373
Epoch: 2026-06-20T05:52Z
TLE epoch observation values (Epoch: 2026-06-20T05:52:30.923Z)
Latitude
0.00004°
Longitude
-91.58825°
Altitude
767.156 km
Speed
7.459 km/s
True Right ascension
17h 40m 00s
True Declination
0° 00' 00"
Sunlit
Object was in full shadow at epoch
Visualization orbit readout
Latitude
Unknown
Longitude
Unknown
Altitude
Unknown
Speed
Unknown
Apparent Right ascension
Unknown
Apparent Declination
Unknown
Sunlit
N/A
Visualization observer readout
Local Sidereal Time
07:18:12
Azimuth
Unknown
Elevation
Unknown
Doppler factor
Unknown
Orbital elements
Apogee altitude
789.008 km
Perigee altitude
688.694 km
Semi-major axis
7,116.988 km
Eccentricity
0.00705
Inclination
88.9284°
RAAN
265.0028°
Arg. of periapsis
243.5924°
True anomaly
116.52786°
Mean anomaly
115.8036°
Eccentric anomaly
116.16601°
Mean motion
3.61492 °/min
Orbital period
99.59 mins
BSTAR
0.00010377
Loading maneuver chart data...
Computing Atmospheric mass density...
Loading historical data...
Loading historical data...
Loading historical data...
Loading historical data...
Loading historical data...
Loading historical data...
Loading historical data...

Documentation

Showing up to 5 results
|